User: anonymous   Login
Location: Esp�n
(42.4593°N, 0.2047°W)
Time: 03:24:03
(UTC+00:00)
Language:

Cosmos 1408 - Orbit

View from above orbital plane
View from above orbital plane
View from above satellite
View from above satellite

Ground track
Ground track

The orbit data is extracted from the following two-line orbital elements,

1 13552U 82092A   20221.74690771 +.00000846 +00000-0 +29633-4 0  9990
2 13552 082.5657 226.1040 0016554 313.3531 046.6328 15.27889593072034
Epoch (UTC): 08 August 2020 17:55:32
Eccentricity: 0.0016554
inclination: 82.5657°
perigee height: 471 km
apogee height: 493 km
right ascension of ascending node: 226.1040°
argument of perigee: 313.3531°
revolutions per day: 15.27889593
mean anomaly at epoch: 46.6328°
orbit number at epoch: 7203

The dashed part of the orbit path shows where the satellite is in the earth's shadow,  

DLR